Overview Statistics Trail Chart Weather Telemetry Raw packets
 

This is the latest recevied weather packets stored in our database for station/object KO4ZGL-13. If no packets are shown the sender has not sent any weather packets the latest 10 day(s).

<< 94 95 96 97 98 99 100 >>
Time Temp. Humidity Pressure Rain* Wind** Luminosity Snow
1787940715 26.11° C 96% 1018.1 hPa 0 mm - 127 W/m² -
1787940414 26.11° C 96% 1018 hPa 0 mm - 100 W/m² -
1787940114 26.11° C 96% 1018.1 hPa 0 mm - 95 W/m² -
1787939808 26.11° C 95% 1018.4 hPa 0 mm - 104 W/m² -
1787939507 26.67° C 95% 1018.3 hPa 0 mm - 104 W/m² -
1787939202 26.11° C 95% 1018.4 hPa 0 mm - 108 W/m² -
1787938897 26.67° C 95% 1018.2 hPa 0 mm - 122 W/m² -
1787938597 26.11° C 96% 1018.3 hPa 0 mm - 116 W/m² -
1787938293 26.67° C 96% 1018.1 hPa 0 mm - 105 W/m² -
1787937988 26.11° C 96% 1018.1 hPa 0 mm - 111 W/m² -
1787937682 26.11° C 96% 1018.2 hPa 0 mm - 127 W/m² -
1787937379 26.11° C 96% 1018.2 hPa 0 mm - 120 W/m² -
1787937075 26.11° C 96% 1018.4 hPa 0 mm - 132 W/m² -
1787936774 26.11° C 97% 1018.3 hPa 0 mm - 115 W/m² -
1787936469 26.11° C 97% 1018.2 hPa 0 mm - 119 W/m² -
1787936169 26.11° C 97% 1018.5 hPa 0 mm - 115 W/m² -
1787935864 26.11° C 97% 1018.4 hPa 0 mm - 98 W/m² -
1787935560 25.56° C 97% 1018.4 hPa 0 mm - 125 W/m² -
1787935256 25.56° C 97% 1018.5 hPa 0 mm - 129 W/m² -
1787934951 26.11° C 97% 1018.5 hPa 0 mm - 135 W/m² -
1787934645 26.11° C 98% 1018.6 hPa 0 mm - 132 W/m² -
1787934339 25.56° C 98% 1018.5 hPa 0 mm - 121 W/m² -
1787934039 25.56° C 98% 1018.4 hPa 0 mm - 88 W/m² -
1787933738 25.56° C 98% 1018.5 hPa 0 mm - 103 W/m² -
1787933434 25.56° C 98% 1018.6 hPa 0 mm - 114 W/m² -

* Rain latest hour (hover to see other rain measurements)
** Current wind speed in m/s (hover to see current wind gust speed)